[[{"header":{"parameterUnit":"m.s-1","parameterCategory":1,"la1":30.2991,"la2":30.254,"lo1":-89.0895,"lo2":-89.0444,"dy":0.0017,"dx":0.0017,"nx":28,"ny":28,"refTime":"2024-10-20T09:00:00:Z","depth":0,"parameterNumber":2,"parameterNumberName":"U-component_of_WINDS"},"data":[0,0,0,0,0,0,0,0,0,0,0,0,0,0,0,0,0,0,0,0,0,0,0,0,0,0,0,0,0,0,0,0,0,0,0,0,0,0,0,0,0,0,0,0,0,0,0,0,0,0,0,0,0,0,0,0,0,0,-1.9736,-1.9736,0,-1.9766,-1.9767,-1.9767,-1.9673,-1.9671,-1.9668,-1.9665,-1.9698,-1.9702,-1.9705,0,0,0,0,0,0,0,0,0,0,0,0,0,-1.9598,-1.9602,-1.9736,-1.9736,-1.9737,-1.9766,-1.9767,-1.9767,-1.9674,-1.967,-1.9667,-1.9664,-1.9697,-1.9701,-1.9706,0,0,0,0,0,0,0,0,0,0,0,0,0,-1.9647,-1.9603,-1.9736,-1.9694,-1.969,-1.9766,-1.9767,-1.9767,-1.9675,-1.967,-1.9666,-1.9662,-1.9696,-1.9701,-1.9706,-1.9825,0,0,-1.9722,-1.9725,0,0,0,0,0,0,0,0,-1.9644,-1.9652,-1.97,-1.9697,-1.9693,-1.9712,-1.973,-1.9787,-1.9676,-1.9681,-1.9665,-1.966,-1.9706,-1.9711,-1.9726,-1.9826,-1.9828,-1.9723,-1.9726,-1.9728,-1.973,0,0,0,0,0,0,0,-1.9641,-1.965,-1.9748,-1.97,-1.9696,-1.9674,-1.9676,-1.9741,-1.9717,-1.968,-1.9673,-1.9678,-1.9704,-1.9721,-1.9726,-1.9828,-1.9723,-1.9728,-1.9731,-1.9733,-2.0028,-2.0032,0,0,0,0,0,0,-1.9643,-1.9648,-1.9747,-1.9749,-1.9657,-1.968,-1.9682,-1.971,-1.9716,-1.9713,-1.9682,-1.9673,-1.9714,-1.972,-1.9727,-1.9867,-1.9728,-1.9733,-1.9736,-2.0023,-2.0029,-2.0034,0,0,0,0,0,0,-1.964,-1.9652,-1.9746,-1.9696,-1.9707,-1.9687,-1.9719,-1.9713,-1.973,-1.9717,-1.9713,-1.9703,-1.9711,-1.9719,-1.9801,-1.9867,-1.9736,-1.9741,-2.0018,-2.0025,-2.0032,-2.0148,0,0,0,0,0,0,-1.9637,-1.9652,-1.9697,-1.9698,-1.971,-1.982,-1.9723,-1.9717,-1.9739,-1.9729,-1.9737,-1.9734,-1.9708,-1.9794,-1.9806,-1.9872,-1.9745,-2.0012,-2.0021,-2.0029,-2.0138,-2.0158,-2.0175,0,0,0,0,0,-1.9632,-1.9729,-1.97,-1.9712,-1.9765,-1.9824,-1.983,-1.9798,-1.9745,-1.979,-1.9782,-1.9734,-1.9857,-1.9803,-1.9816,-1.9884,-2.0008,-2.0019,-2.0029,-2.013,-2.0154,-2.0174,0,0,0,0,0,0,-1.9737,-1.9728,-1.9696,-1.9796,-1.9811,-1.9808,-1.9864,-1.9824,-1.9856,-1.9845,-1.9804,-1.9806,-1.9896,-1.9898,-1.9838,-1.9999,-1.9923,-1.9937,-1.9996,-2.0018,-2.0036,-2.0035,-1.9749,0,0,0,0,0,-1.9771,-1.9819,-1.9809,-1.9899,-1.9908,-1.9885,-1.9909,-1.9882,-1.9897,-1.9903,-1.9901,-1.9918,-1.996,-1.9989,-2.0027,-2.0137,-2.0138,-2.019,-2.0208,-2.0223,-2.0237,-2.0296,-2.0319,-2.0068,-2.0068,-2.0068,0,0,-1.9844,-1.9845,-1.9878,-1.992,-1.9928,-1.998,-1.9891,-1.9949,-1.9986,-1.9912,-1.999,-1.9988,-2.0004,-2.0101,-2.0143,-2.0105,-2.0306,-2.0237,-2.0249,-2.0254,-2.0309,-2.0333,-2.0354,-2.0075,-2.0074,-2.0073,0,0,-2.0003,-2.0008,-2.0083,-2.0093,-2.0107,-2.0091,-2.0109,-2.0111,-2.0107,-2.0184,-2.0129,-2.0173,-2.0247,-2.026,-2.0277,-2.0439,-2.0396,-2.0452,-2.0549,-2.0607,-2.0627,-2.0644,-2.0704,-2.0725,-2.0465,-2.0465,-2.0465,0,-2.0092,-2.0166,-2.0127,-2.0188,-2.0209,-2.0142,-2.0218,-2.023,-2.0256,-2.0272,-2.0228,-2.0319,-2.0324,-2.0424,-2.0463,-2.0478,-2.0498,-2.0453,-2.0627,-2.0644,-2.066,-2.0716,-2.0738,-2.0472,-2.0471,-2.047,-2.047,0,-2.0275,-2.0327,-2.0386,-2.0413,-2.0439,-2.0508,-2.0479,-2.0511,-2.0481,-2.047,-2.0549,-2.0553,-2.0591,-2.0612,-2.0584,-2.0707,-2.0683,-2.0634,-2.0557,-2.0691,-2.0743,-2.0764,-2.0482,-2.0479,-2.0477,-2.0475,0,0,-2.0503,-2.0505,-2.0528,-2.0539,-2.0549,-2.0589,-2.0654,-2.069,-2.0719,-2.0738,-2.0793,-2.0856,-2.081,-2.0829,-2.0801,-2.0852,-2.0981,-2.0796,-2.0796,-2.0832,-2.1119,-2.1158,-2.1183,-2.0952,-2.0956,-2.0959,-2.1118,0,-2.0661,-2.0773,-2.0739,-2.0852,-2.09,-2.0836,-2.0893,-2.0906,-2.0896,-2.0936,-2.0925,-2.0971,-2.0906,-2.0917,-2.0964,-2.0956,-2.1039,-2.0943,-2.1004,-2.1006,-2.1004,-2.121,-2.1251,-2.1402,-2.1138,-2.1141,-2.1144,0,-2.086,-2.0887,-2.1005,-2.1006,-2.1025,-2.1077,-2.1107,-2.1145,-2.1158,-2.1147,-2.1168,-2.1129,-2.1194,-2.1115,-2.1203,-2.1139,-2.1161,-2.1161,-2.1166,-2.1172,-2.1085,-2.1224,-2.1449,-2.1472,-2.1175,-2.1173,-2.117,0,-2.1017,-2.1082,-2.1161,-2.1172,-2.1175,-2.1213,-2.1216,-2.1224,-2.1248,-2.1274,-2.129,-2.1323,-2.1342,-2.1369,-2.1342,-2.1286,-2.1435,-2.1353,-2.1429,-2.1431,-2.1466,-2.1465,-2.17,-2.1477,-2.1476,-2.1476,-2.1475,0,-2.1198,-2.1273,-2.1232,-2.1281,-2.1363,-2.1323,-2.1405,-2.1401,-2.1408,-2.1456,-2.1402,-2.1447,-2.1406,-2.1448,-2.1427,-2.1504,-2.1513,-2.1507,-2.1501,-2.1513,-2.1514,-2.1529,-2.1519,-2.1482,-2.1481,-2.1479,-2.1478,0,-2.1389,-2.1364,-2.1446,-2.1441,-2.1442,-2.1503,-2.1499,-2.1544,-2.1529,-2.159,-2.1602,-2.158,-2.1626,-2.16,-2.1648,-2.1633,-2.1735,-2.1713,-2.1731,-2.1726,-2.1804,-2.1798,-2.2059,-2.2092,-2.1846,-2.1848,-2.185,0,-2.1507,-2.1563,-2.1564,-2.1592,-2.1598,-2.1643,-2.1667,-2.1629,-2.1656,-2.1673,-2.1717,-2.1758,-2.179,-2.1867,-2.1856,-2.1892,-2.1872,-2.1961,-2.1877,-2.1888,-2.1876,-2.1874,-2.188,-2.1979,-2.1982,-2.1984,-2.1986,0,-2.1721,-2.1705,-2.1741,-2.1773,-2.1803,-2.1826,-2.1845,-2.1871,-2.1832,-2.1866,-2.1912,-2.1936,-2.1984,-2.2027,-2.2058,-2.2061,-2.2018,-2.2012,-2.2031,-2.2046,-2.2055,-2.2053,-2.1779,-2.2007,-2.2005,-2.2003,-2.2002,-2.2001,-2.188,-2.1927,-2.1935,-2.1977,-2.1987,-2.2006,-2.2048,-2.2038,-2.2076,-2.2112,-2.2087,-2.2142,-2.2152,-2.2189,-2.2197,-2.224,-2.2205,-2.2233,-2.2241,-2.2249,-2.2261,-2.2046,-2.2245,-2.2245,-2.2244,-2.2244,-2.2243,0,-2.2092,-2.2094,-2.2133,-2.216,-2.2194,-2.2148,-2.2166,-2.2197,-2.2246,-2.2259,-2.229,-2.2344,-2.2384,-2.2375,-2.2412,-2.2448,-2.2429,-2.2459,-2.2457,-2.2459,-2.2289,-2.227,-2.2474,-2.2474,-2.2474,-2.2474,-2.2473,-2.2473,-2.2207,-2.2285,-2.227,-2.2352,-2.2352,-2.2406,-2.242,-2.2437,-2.2447,-2.2509,-2.2542,-2.2535,-2.2539,-2.2576,-2.2611,-2.2607,-2.2624,-2.2662,-2.2651,-2.2494,-2.2471,-2.2449,-2.243,-2.2665,-2.2665,-2.2817,-2.2819,-2.282]},{"header":{"parameterUnit":"m.s-1","parameterCategory":1,"la1":30.2991,"la2":30.254,"lo1":-89.0895,"lo2":-89.0444,"dy":0.0017,"dx":0.0017,"nx":28,"ny":28,"refTime":"2024-10-20T09:00:00:Z","depth":0,"parameterNumber":3,"parameterNumberName":"V-component_of_WINDS"},"data":[0,0,0,0,0,0,0,0,0,0,0,0,0,0,0,0,0,0,0,0,0,0,0,0,0,0,0,0,0,0,0,0,0,0,0,0,0,0,0,0,0,0,0,0,0,0,0,0,0,0,0,0,0,0,0,0,0,0,-3.4108,-3.4108,0,-3.4126,-3.4126,-3.4126,-3.4068,-3.4067,-3.4065,-3.4063,-3.408,-3.4082,-3.4084,0,0,0,0,0,0,0,0,0,0,0,0,0,-3.402,-3.4022,-3.4108,-3.4108,-3.4108,-3.4126,-3.4126,-3.4126,-3.4069,-3.4066,-3.4064,-3.4062,-3.408,-3.4082,-3.4085,0,0,0,0,0,0,0,0,0,0,0,0,0,-3.405,-3.4023,-3.4108,-3.4081,-3.4079,-3.4126,-3.4126,-3.4126,-3.4069,-3.4066,-3.4064,-3.4061,-3.4079,-3.4082,-3.4085,-3.4157,0,0,-3.4095,-3.4096,0,0,0,0,0,0,0,0,-3.4049,-3.4053,-3.4085,-3.4083,-3.4081,-3.4092,-3.4101,-3.4137,-3.407,-3.4073,-3.4063,-3.406,-3.4086,-3.4089,-3.4098,-3.4158,-3.4159,-3.4095,-3.4097,-3.4098,-3.4099,0,0,0,0,0,0,0,-3.4047,-3.4052,-3.4115,-3.4086,-3.4083,-3.4068,-3.4069,-3.4108,-3.4094,-3.4072,-3.4068,-3.4071,-3.4085,-3.4095,-3.4098,-3.4159,-3.4095,-3.4098,-3.41,-3.4101,-3.4278,-3.428,0,0,0,0,0,0,-3.4048,-3.4051,-3.4114,-3.4115,-3.4058,-3.4072,-3.4073,-3.4091,-3.4094,-3.4091,-3.4074,-3.4069,-3.4091,-3.4094,-3.4098,-3.4182,-3.4098,-3.4101,-3.4103,-3.4275,-3.4278,-3.4281,0,0,0,0,0,0,-3.4047,-3.4054,-3.4113,-3.4082,-3.4088,-3.4076,-3.4097,-3.4093,-3.4103,-3.4094,-3.4091,-3.4087,-3.4089,-3.4094,-3.4143,-3.4181,-3.4102,-3.4105,-3.4271,-3.4276,-3.428,-3.435,0,0,0,0,0,0,-3.4044,-3.4054,-3.4082,-3.4083,-3.409,-3.4159,-3.4099,-3.4095,-3.4109,-3.4103,-3.4106,-3.4104,-3.4087,-3.4138,-3.4146,-3.4184,-3.4108,-3.4268,-3.4273,-3.4278,-3.4344,-3.4356,-3.4366,0,0,0,0,0,-3.4041,-3.4101,-3.4084,-3.4092,-3.4125,-3.4161,-3.4165,-3.4145,-3.4112,-3.414,-3.4134,-3.4104,-3.4176,-3.4144,-3.4152,-3.4192,-3.4265,-3.4272,-3.4278,-3.4339,-3.4354,-3.4366,0,0,0,0,0,0,-3.4105,-3.4101,-3.4082,-3.4144,-3.4153,-3.4151,-3.4185,-3.4161,-3.418,-3.4173,-3.4147,-3.4148,-3.4201,-3.4201,-3.4165,-3.4261,-3.4215,-3.4223,-3.4259,-3.4273,-3.4284,-3.4282,-3.411,0,0,0,0,0,-3.4126,-3.4156,-3.4151,-3.4206,-3.4212,-3.4198,-3.4213,-3.4196,-3.4205,-3.4208,-3.4206,-3.4215,-3.4239,-3.4256,-3.4278,-3.4344,-3.4343,-3.4376,-3.4387,-3.4396,-3.4403,-3.4436,-3.445,-3.4302,-3.4302,-3.4302,0,0,-3.417,-3.4172,-3.4192,-3.4219,-3.4224,-3.4255,-3.4202,-3.4237,-3.4259,-3.4213,-3.4259,-3.4258,-3.4266,-3.4324,-3.4349,-3.4325,-3.4444,-3.4404,-3.4411,-3.4413,-3.4444,-3.4458,-3.4471,-3.4306,-3.4305,-3.4305,0,0,-3.4266,-3.4271,-3.4317,-3.4323,-3.4332,-3.4322,-3.4333,-3.4335,-3.4332,-3.4378,-3.4344,-3.437,-3.4413,-3.442,-3.4429,-3.4527,-3.4499,-3.4535,-3.4592,-3.4625,-3.4637,-3.4647,-3.4681,-3.4693,-3.4542,-3.4542,-3.4542,0,-3.432,-3.4365,-3.4343,-3.4381,-3.4392,-3.4353,-3.4399,-3.4406,-3.4421,-3.443,-3.4404,-3.4457,-3.4459,-3.4517,-3.4541,-3.455,-3.4561,-3.4534,-3.4637,-3.4647,-3.4656,-3.4688,-3.4701,-3.4546,-3.4546,-3.4545,-3.4545,0,-3.443,-3.4462,-3.4498,-3.4514,-3.453,-3.4571,-3.4555,-3.4574,-3.4556,-3.4549,-3.4595,-3.4597,-3.4618,-3.4631,-3.4614,-3.4686,-3.4671,-3.4642,-3.4594,-3.4675,-3.4704,-3.4716,-3.4552,-3.4551,-3.4549,-3.4548,0,0,-3.4566,-3.4569,-3.4583,-3.4589,-3.4595,-3.4619,-3.4658,-3.4679,-3.4695,-3.4707,-3.4739,-3.4776,-3.4748,-3.4759,-3.4742,-3.4771,-3.4847,-3.4738,-3.4737,-3.4757,-3.4925,-3.4946,-3.4961,-3.4829,-3.4831,-3.4833,-3.4924,0,-3.466,-3.4727,-3.4708,-3.4775,-3.4803,-3.4766,-3.4799,-3.4807,-3.4801,-3.4823,-3.4816,-3.4843,-3.4805,-3.4811,-3.4838,-3.4832,-3.488,-3.4825,-3.4856,-3.4858,-3.4855,-3.4976,-3.4999,-3.5085,-3.4935,-3.4937,-3.4938,0,-3.4778,-3.4794,-3.4864,-3.4864,-3.4876,-3.4907,-3.4923,-3.4946,-3.4953,-3.4946,-3.4958,-3.4935,-3.4972,-3.4926,-3.4976,-3.4939,-3.4951,-3.495,-3.4953,-3.4954,-3.4902,-3.498,-3.5112,-3.5124,-3.4956,-3.4955,-3.4954,0,-3.4869,-3.4908,-3.4955,-3.4961,-3.4964,-3.4986,-3.4988,-3.4992,-3.5005,-3.502,-3.5028,-3.5048,-3.5058,-3.5073,-3.5055,-3.5023,-3.5108,-3.506,-3.5103,-3.5103,-3.5121,-3.512,-3.5256,-3.5131,-3.5131,-3.513,-3.513,0,-3.4974,-3.5018,-3.4995,-3.5024,-3.5071,-3.5049,-3.5096,-3.5094,-3.5098,-3.5124,-3.5093,-3.5119,-3.5095,-3.5118,-3.5105,-3.5147,-3.5153,-3.5148,-3.5143,-3.515,-3.515,-3.5156,-3.515,-3.5134,-3.5133,-3.5132,-3.5132,0,-3.5084,-3.5071,-3.5118,-3.5116,-3.5117,-3.5152,-3.515,-3.5175,-3.5167,-3.5201,-3.5208,-3.5195,-3.522,-3.5204,-3.523,-3.5221,-3.5277,-3.5265,-3.5275,-3.5271,-3.5314,-3.531,-3.5457,-3.5475,-3.534,-3.5341,-3.5342,0,-3.5152,-3.5184,-3.5186,-3.5202,-3.5205,-3.5231,-3.5245,-3.5223,-3.5239,-3.5248,-3.5273,-3.5296,-3.5313,-3.5355,-3.5347,-3.5367,-3.5354,-3.5405,-3.5357,-3.5362,-3.5354,-3.5352,-3.5354,-3.5414,-3.5416,-3.5417,-3.5418,0,-3.5273,-3.5265,-3.5286,-3.5304,-3.5321,-3.5335,-3.5345,-3.536,-3.5338,-3.5357,-3.5382,-3.5396,-3.5422,-3.5445,-3.5461,-3.5462,-3.5436,-3.5433,-3.5444,-3.545,-3.5454,-3.5452,-3.53,-3.543,-3.5429,-3.5428,-3.5427,-3.5427,-3.5363,-3.539,-3.5395,-3.5419,-3.5424,-3.5435,-3.5459,-3.5453,-3.5474,-3.5494,-3.548,-3.551,-3.5515,-3.5534,-3.5539,-3.5561,-3.5541,-3.5557,-3.556,-3.5564,-3.557,-3.5452,-3.5565,-3.5564,-3.5564,-3.5564,-3.5563,0,-3.5482,-3.5483,-3.5505,-3.5521,-3.554,-3.5514,-3.5525,-3.5542,-3.5569,-3.5576,-3.5593,-3.5622,-3.5644,-3.5638,-3.5657,-3.5676,-3.5665,-3.5682,-3.568,-3.568,-3.5588,-3.5576,-3.5691,-3.5691,-3.5691,-3.5691,-3.5691,-3.5691,-3.5546,-3.5589,-3.5581,-3.5627,-3.5628,-3.5657,-3.5665,-3.5674,-3.5679,-3.5713,-3.5731,-3.5727,-3.5729,-3.5748,-3.5766,-3.5764,-3.5772,-3.5793,-3.5786,-3.57,-3.5687,-3.5675,-3.5664,-3.5795,-3.5795,-3.5877,-3.5877,-3.5878]}]]